Time,TemperatureF,DewpointF,PressureIn,WindDirection,WindDirectionDegrees,WindSpeedMPH,WindSpeedGustMPH,Humidity,HourlyPrecipIn,Conditions,Clouds,dailyrainin,SoftwareType,DateUTC
2013-08-17 00:14:00,58.1,53.0,30.09,North,0,0.0,0.0,83,0.00,,,0.00,WUHU216HW,2013-08-17 04:14:00,
2013-08-17 00:29:00,58.0,53.5,30.10,WNW,293,0.6,1.1,85,0.00,,,0.00,WUHU216HW,2013-08-17 04:29:00,
2013-08-17 00:44:00,58.0,53.5,30.10,WNW,293,0.8,0.9,85,0.00,,,0.00,WUHU216HW,2013-08-17 04:44:00,
2013-08-17 00:59:00,57.6,53.5,30.10,NNE,13,0.5,0.9,86,0.00,,,0.00,WUHU216HW,2013-08-17 04:59:00,
2013-08-17 01:14:00,58.0,54.1,30.10,WNW,300,0.7,1.1,87,0.00,,,0.00,WUHU216HW,2013-08-17 05:14:00,
2013-08-17 01:29:00,58.1,54.3,30.10,North,357,0.5,0.7,87,0.00,,,0.00,WUHU216HW,2013-08-17 05:29:00,
2013-08-17 01:44:00,58.3,54.5,30.10,WNW,297,0.9,1.1,87,0.00,,,0.00,WUHU216HW,2013-08-17 05:44:00,
2013-08-17 01:59:00,58.3,54.5,30.10,North,0,0.0,0.0,87,0.00,,,0.00,WUHU216HW,2013-08-17 05:59:00,
2013-08-17 02:14:00,58.3,54.5,30.10,WNW,293,0.2,0.2,87,0.00,,,0.00,WUHU216HW,2013-08-17 06:14:00,
2013-08-17 02:29:00,58.3,54.5,30.10,North,0,0.0,0.0,87,0.00,,,0.00,WUHU216HW,2013-08-17 06:29:00,
2013-08-17 02:44:00,58.3,54.5,30.10,North,0,0.0,0.0,87,0.00,,,0.00,WUHU216HW,2013-08-17 06:44:00,
2013-08-17 02:59:00,58.3,54.5,30.10,North,0,0.0,0.0,87,0.00,,,0.00,WUHU216HW,2013-08-17 06:59:00,
2013-08-17 03:14:00,58.1,54.6,30.10,North,0,0.0,0.0,88,0.00,,,0.00,WUHU216HW,2013-08-17 07:14:00,
2013-08-17 03:29:00,58.0,54.5,30.10,North,0,0.0,0.0,88,0.00,,,0.00,WUHU216HW,2013-08-17 07:29:00,
2013-08-17 03:44:00,57.8,54.3,30.10,North,0,0.0,0.0,88,0.00,,,0.00,WUHU216HW,2013-08-17 07:44:00,
2013-08-17 03:59:00,57.6,53.7,30.10,North,0,0.0,0.0,87,0.00,,,0.00,WUHU216HW,2013-08-17 07:59:00,
2013-08-17 04:14:00,57.1,52.9,30.11,North,0,0.0,0.0,86,0.00,,,0.00,WUHU216HW,2013-08-17 08:14:00,
2013-08-17 04:29:00,56.9,53.0,30.11,WNW,293,0.8,1.1,87,0.00,,,0.00,WUHU216HW,2013-08-17 08:29:00,
2013-08-17 04:44:00,56.7,52.8,30.11,WNW,293,0.5,1.1,87,0.00,,,0.00,WUHU216HW,2013-08-17 08:44:00,
2013-08-17 04:59:00,56.3,52.5,30.11,NW,307,0.6,1.1,87,0.00,,,0.00,WUHU216HW,2013-08-17 08:59:00,
2013-08-17 05:14:00,56.2,52.3,30.11,WNW,303,0.5,1.1,87,0.00,,,0.00,WUHU216HW,2013-08-17 09:14:00,
2013-08-17 05:29:00,55.8,51.9,30.12,North,0,0.0,0.0,87,0.00,,,0.00,WUHU216HW,2013-08-17 09:29:00,
2013-08-17 05:44:00,55.4,51.6,30.12,North,0,0.0,0.0,87,0.00,,,0.00,WUHU216HW,2013-08-17 09:44:00,
2013-08-17 05:59:00,55.1,51.2,30.12,North,0,0.0,0.0,87,0.00,,,0.00,WUHU216HW,2013-08-17 09:59:00,
2013-08-17 06:14:00,54.9,51.0,30.13,WNW,293,0.4,0.7,87,0.00,,,0.00,WUHU216HW,2013-08-17 10:14:00,
2013-08-17 06:29:00,54.5,51.0,30.13,North,0,0.0,0.0,88,0.00,,,0.00,WUHU216HW,2013-08-17 10:29:00,
2013-08-17 06:44:00,54.4,50.9,30.13,North,0,0.0,0.0,88,0.00,,,0.00,WUHU216HW,2013-08-17 10:44:00,
2013-08-17 06:59:00,54.4,50.9,30.13,North,0,0.0,0.0,88,0.00,,,0.00,WUHU216HW,2013-08-17 10:59:00,
2013-08-17 07:14:00,54.7,51.5,30.13,ENE,78,0.8,1.1,89,0.00,,,0.00,WUHU216HW,2013-08-17 11:14:00,
2013-08-17 07:29:00,55.1,51.8,30.14,North,0,0.0,0.0,89,0.00,,,0.00,WUHU216HW,2013-08-17 11:29:00,
2013-08-17 07:44:00,55.6,52.4,30.14,NE,45,0.4,0.7,89,0.00,,,0.00,WUHU216HW,2013-08-17 11:44:00,
2013-08-17 07:59:00,56.3,53.5,30.14,NE,45,0.5,0.7,90,0.00,,,0.00,WUHU216HW,2013-08-17 11:59:00,
2013-08-17 08:14:00,58.0,55.1,30.14,SE,130,0.6,1.6,90,0.00,,,0.00,WUHU216HW,2013-08-17 12:14:00,
2013-08-17 08:29:00,60.8,57.3,30.15,ESE,104,0.6,1.1,88,0.00,,,0.00,WUHU216HW,2013-08-17 12:29:00,
2013-08-17 08:44:00,62.8,57.9,30.15,ESE,107,0.9,1.6,84,0.00,,,0.00,WUHU216HW,2013-08-17 12:44:00,
2013-08-17 08:59:00,64.8,59.5,30.15,East,88,0.7,1.6,83,0.00,,,0.00,WUHU216HW,2013-08-17 12:59:00,
2013-08-17 09:15:00,67.1,59.3,30.15,ENE,62,1.0,1.8,76,0.00,,,0.00,WUHU216HW,2013-08-17 13:15:00,
2013-08-17 09:30:00,68.4,59.0,30.15,SE,124,0.9,1.8,72,0.00,,,0.00,WUHU216HW,2013-08-17 13:30:00,
2013-08-17 09:45:00,69.8,59.1,30.15,ENE,74,1.0,2.0,69,0.00,,,0.00,WUHU216HW,2013-08-17 13:45:00,
2013-08-17 10:00:00,71.1,59.6,30.15,East,88,1.0,2.2,67,0.00,,,0.00,WUHU216HW,2013-08-17 14:00:00,
2013-08-17 10:15:00,72.7,60.2,30.15,ESE,105,0.9,1.8,65,0.00,,,0.00,WUHU216HW,2013-08-17 14:15:00,
2013-08-17 10:30:00,74.2,58.4,30.15,East,86,1.7,3.6,58,0.00,,,0.00,WUHU216HW,2013-08-17 14:30:00,
2013-08-17 10:45:00,74.9,58.6,30.15,SSE,147,1.4,3.1,57,0.00,,,0.00,WUHU216HW,2013-08-17 14:45:00,
2013-08-17 11:00:00,75.4,58.2,30.14,SE,144,1.8,4.0,55,0.00,,,0.00,WUHU216HW,2013-08-17 15:00:00,
2013-08-17 11:15:00,76.1,58.2,30.14,SSE,147,1.2,3.4,54,0.00,,,0.00,WUHU216HW,2013-08-17 15:15:00,
2013-08-17 11:30:00,76.7,57.2,30.14,SW,214,2.2,4.5,51,0.00,,,0.00,WUHU216HW,2013-08-17 15:30:00,
2013-08-17 11:45:00,76.7,56.7,30.13,WNW,282,2.0,5.4,50,0.00,,,0.00,WUHU216HW,2013-08-17 15:45:00,
2013-08-17 12:00:00,77.0,55.3,30.14,SW,229,2.4,7.8,47,0.00,,,0.00,WUHU216HW,2013-08-17 16:00:00,
2013-08-17 12:15:00,77.4,56.2,30.14,West,270,1.9,7.4,48,0.00,,,0.00,WUHU216HW,2013-08-17 16:15:00,
2013-08-17 12:30:00,77.6,56.4,30.14,NNW,338,1.9,4.5,48,0.00,,,0.00,WUHU216HW,2013-08-17 16:30:00,
2013-08-17 12:45:00,77.8,55.3,30.14,WNW,287,2.2,6.3,46,0.00,,,0.00,WUHU216HW,2013-08-17 16:45:00,
2013-08-17 13:00:00,77.9,53.0,30.14,WNW,294,2.3,5.8,42,0.00,,,0.00,WUHU216HW,2013-08-17 17:00:00,
2013-08-17 13:15:00,78.1,55.6,30.14,WNW,288,1.5,3.4,46,0.00,,,0.00,WUHU216HW,2013-08-17 17:15:00,
2013-08-17 13:30:00,77.9,53.6,30.13,West,276,2.2,5.4,43,0.00,,,0.00,WUHU216HW,2013-08-17 17:30:00,
2013-08-17 13:45:00,78.1,53.7,30.13,West,279,1.5,3.6,43,0.00,,,0.00,WUHU216HW,2013-08-17 17:45:00,
2013-08-17 14:00:00,78.3,55.2,30.13,SSE,150,1.6,3.8,45,0.00,,,0.00,WUHU216HW,2013-08-17 18:00:00,
2013-08-17 14:15:00,78.1,54.4,30.13,South,180,1.6,5.4,44,0.00,,,0.00,WUHU216HW,2013-08-17 18:15:00,
2013-08-17 14:30:00,77.9,53.6,30.13,WSW,241,1.9,5.4,43,0.00,,,0.00,WUHU216HW,2013-08-17 18:30:00,
2013-08-17 14:45:00,77.8,53.5,30.13,West,260,2.1,4.9,43,0.00,,,0.00,WUHU216HW,2013-08-17 18:45:00,
2013-08-17 15:00:00,77.6,53.3,30.13,WSW,256,2.0,6.3,43,0.00,,,0.00,WUHU216HW,2013-08-17 19:00:00,
2013-08-17 15:15:00,77.0,52.2,30.12,SW,224,1.4,4.0,42,0.00,,,0.00,WUHU216HW,2013-08-17 19:15:00,
2013-08-17 15:30:00,77.0,53.4,30.13,SW,226,1.7,4.3,44,0.00,,,0.00,WUHU216HW,2013-08-17 19:30:00,
2013-08-17 15:45:00,76.3,52.7,30.13,West,275,1.6,4.7,44,0.00,,,0.00,WUHU216HW,2013-08-17 19:45:00,
2013-08-17 16:00:00,76.0,53.0,30.13,WSW,240,1.4,3.1,45,0.00,,,0.00,WUHU216HW,2013-08-17 20:00:00,
2013-08-17 16:15:00,75.6,53.9,30.12,NW,316,1.0,2.5,47,0.00,,,0.00,WUHU216HW,2013-08-17 20:15:00,
2013-08-17 16:30:00,75.2,54.8,30.12,NE,43,0.8,2.7,49,0.00,,,0.00,WUHU216HW,2013-08-17 20:30:00,
2013-08-17 16:45:00,75.1,55.3,30.12,WSW,237,1.4,5.1,50,0.00,,,0.00,WUHU216HW,2013-08-17 20:45:00,
2013-08-17 17:00:00,74.5,54.1,30.12,NNW,327,1.1,2.5,49,0.00,,,0.00,WUHU216HW,2013-08-17 21:00:00,
2013-08-17 17:15:00,74.2,54.4,30.12,WNW,287,0.8,1.8,50,0.00,,,0.00,WUHU216HW,2013-08-17 21:15:00,
2013-08-17 17:30:00,73.8,55.0,30.12,WSW,250,0.7,1.8,52,0.00,,,0.00,WUHU216HW,2013-08-17 21:30:00,
2013-08-17 17:45:00,73.1,55.4,30.12,WNW,297,1.4,4.7,54,0.00,,,0.00,WUHU216HW,2013-08-17 21:45:00,
2013-08-17 18:00:00,72.5,55.4,30.13,West,279,1.3,3.4,55,0.00,,,0.00,WUHU216HW,2013-08-17 22:00:00,
2013-08-17 18:15:00,71.8,56.3,30.13,WNW,291,0.8,2.5,58,0.00,,,0.00,WUHU216HW,2013-08-17 22:15:00,
2013-08-17 18:30:00,71.3,57.2,30.13,West,279,1.2,2.5,61,0.00,,,0.00,WUHU216HW,2013-08-17 22:30:00,
2013-08-17 18:45:00,70.2,56.2,30.13,West,278,1.4,2.5,61,0.00,,,0.00,WUHU216HW,2013-08-17 22:45:00,
2013-08-17 19:00:00,68.9,55.8,30.14,West,281,1.3,3.1,63,0.00,,,0.00,WUHU216HW,2013-08-17 23:00:00,
2013-08-17 19:15:00,67.9,55.6,30.14,WNW,282,1.1,2.0,65,0.00,,,0.00,WUHU216HW,2013-08-17 23:15:00,
2013-08-17 19:30:00,67.0,54.8,30.13,West,271,1.4,2.7,65,0.00,,,0.00,WUHU216HW,2013-08-17 23:30:00,
2013-08-17 19:45:00,66.2,54.1,30.14,WNW,283,1.0,1.8,65,0.00,,,0.00,WUHU216HW,2013-08-17 23:45:00,
2013-08-17 20:00:00,65.5,53.4,30.14,WNW,293,0.6,1.1,65,0.00,,,0.00,WUHU216HW,2013-08-18 00:00:00,
2013-08-17 20:15:00,64.8,52.8,30.14,WNW,293,0.6,1.1,65,0.00,,,0.00,WUHU216HW,2013-08-18 00:15:00,
2013-08-17 20:30:00,64.1,52.9,30.14,WNW,293,0.2,0.2,67,0.00,,,0.00,WUHU216HW,2013-08-18 00:30:00,
2013-08-17 20:45:00,63.2,52.5,30.15,WNW,293,0.5,0.9,68,0.00,,,0.00,WUHU216HW,2013-08-18 00:45:00,
2013-08-17 21:00:00,62.3,52.4,30.15,NW,315,0.4,0.9,70,0.00,,,0.00,WUHU216HW,2013-08-18 01:00:00,
2013-08-17 21:15:00,61.6,51.4,30.15,NW,309,0.5,1.3,69,0.00,,,0.00,WUHU216HW,2013-08-18 01:15:00,
2013-08-17 21:30:00,60.8,51.1,30.16,West,278,1.0,2.0,70,0.00,,,0.00,WUHU216HW,2013-08-18 01:30:00,
2013-08-17 21:45:00,60.1,51.1,30.17,WNW,293,0.4,0.4,72,0.00,,,0.00,WUHU216HW,2013-08-18 01:45:00,
2013-08-17 22:00:00,59.8,51.1,30.16,WNW,293,0.6,1.1,73,0.00,,,0.00,WUHU216HW,2013-08-18 02:00:00,
2013-08-17 22:15:00,59.0,50.8,30.16,WNW,293,0.3,0.4,74,0.00,,,0.00,WUHU216HW,2013-08-18 02:15:00,
2013-08-17 22:30:00,58.1,50.2,30.16,WNW,293,0.9,1.1,75,0.00,,,0.00,WUHU216HW,2013-08-18 02:30:00,
2013-08-17 22:45:00,58.0,50.4,30.16,WNW,293,0.8,1.1,76,0.00,,,0.00,WUHU216HW,2013-08-18 02:45:00,
2013-08-17 23:00:00,57.2,50.0,30.17,WNW,290,0.7,1.3,77,0.00,,,0.00,WUHU216HW,2013-08-18 03:00:00,
2013-08-17 23:15:00,56.9,50.0,30.16,NNW,338,0.3,0.7,78,0.00,,,0.00,WUHU216HW,2013-08-18 03:15:00,
2013-08-17 23:30:00,56.5,49.7,30.16,NNW,328,0.5,0.7,78,0.00,,,0.00,WUHU216HW,2013-08-18 03:30:00,
2013-08-17 23:45:00,55.6,49.1,30.16,WNW,289,0.5,1.1,79,0.00,,,0.00,WUHU216HW,2013-08-18 03:45:00,